N510MV KGPT-KCMI

Flight info

Callsign N510MV
Flight time N/A
Altitude FL350
Route DCT PCU V555 MCB J35 MEM J71 ENL DCT CMI DCT
Aircraft C510/L-VGDW/C

Departure

Time 2026-05-03 22:36
Airport Gulfport Biloxi International Airport (KGPT)

Arrival

Time N/A
Airport University of Illinois Willard Airport (KCMI)
Time Latitude Longitude Altitude Speed Heading
2026-05-03 22:11 30.40378 -89.07391 41 ft 0 kts 225°
2026-05-03 22:28 30.40373 -89.07397 42 ft 4 kts 226°
2026-05-03 22:29 30.40367 -89.07426 42 ft 3 kts 304°
2026-05-03 22:29 30.40406 -89.07401 42 ft 8 kts 47°
2026-05-03 22:29 30.40433 -89.07369 42 ft 4 kts 45°
2026-05-03 22:29 30.40462 -89.07336 42 ft 11 kts 45°
2026-05-03 22:30 30.40516 -89.07324 42 ft 7 kts 315°
2026-05-03 22:30 30.40557 -89.07374 42 ft 9 kts 315°
2026-05-03 22:30 30.40604 -89.07427 42 ft 10 kts 315°
2026-05-03 22:30 30.40664 -89.07498 41 ft 15 kts 314°
2026-05-03 22:31 30.40739 -89.07583 41 ft 17 kts 314°
2026-05-03 22:31 30.40831 -89.07691 40 ft 21 kts 315°
2026-05-03 22:31 30.40922 -89.07795 39 ft 17 kts 314°
2026-05-03 22:31 30.40995 -89.07880 38 ft 14 kts 315°
2026-05-03 22:32 30.41068 -89.07965 37 ft 17 kts 315°
2026-05-03 22:32 30.41143 -89.08058 36 ft 14 kts 298°
2026-05-03 22:32 30.41175 -89.08153 35 ft 13 kts 312°
2026-05-03 22:32 30.41242 -89.08232 34 ft 15 kts 315°
2026-05-03 22:33 30.41295 -89.08295 33 ft 8 kts 314°
2026-05-03 22:33 30.41355 -89.08341 32 ft 14 kts
2026-05-03 22:33 30.41392 -89.08320 32 ft 5 kts 45°
2026-05-03 22:33 30.41401 -89.08309 32 ft 0 kts 45°
2026-05-03 22:34 30.41409 -89.08300 32 ft 7 kts 45°
2026-05-03 22:34 30.41456 -89.08249 31 ft 9 kts 43°
2026-05-03 22:35 30.41463 -89.08201 31 ft 6 kts 115°
2026-05-03 22:35 30.41455 -89.08188 31 ft 0 kts 132°
2026-05-03 22:35 30.41402 -89.08128 32 ft 43 kts 137°
2026-05-03 22:35 30.41017 -89.07681 39 ft 108 kts 137°
2026-05-03 22:36 30.40408 -89.06976 198 ft 145 kts 136°
2026-05-03 22:36 30.39693 -89.06068 727 ft 162 kts 132°
2026-05-03 22:36 30.38955 -89.05122 1438 ft 162 kts 134°
2026-05-03 22:36 30.38167 -89.04212 2082 ft 167 kts 134°
2026-05-03 22:37 30.37367 -89.03313 2727 ft 170 kts 134°
2026-05-03 22:37 30.36516 -89.02384 3363 ft 173 kts 139°
2026-05-03 22:37 30.35441 -89.01928 3964 ft 176 kts 184°
2026-05-03 22:37 30.34444 -89.02333 4384 ft 182 kts 222°
2026-05-03 22:38 30.33868 -89.03330 4796 ft 183 kts 261°
2026-05-03 22:38 30.33936 -89.04696 5376 ft 180 kts 292°
2026-05-03 22:38 30.34415 -89.06029 6019 ft 181 kts 294°
2026-05-03 22:38 30.34840 -89.07384 6673 ft 182 kts 294°
2026-05-03 22:39 30.35311 -89.08823 7344 ft 183 kts 294°
2026-05-03 22:39 30.35754 -89.10178 7942 ft 185 kts 294°
2026-05-03 22:39 30.36199 -89.11540 8552 ft 185 kts 294°
2026-05-03 22:39 30.36641 -89.12892 9123 ft 186 kts 293°
2026-05-03 22:40 30.37097 -89.14285 9693 ft 188 kts 293°
2026-05-03 22:40 30.37548 -89.15670 10265 ft 188 kts 293°
2026-05-03 22:40 30.37990 -89.17030 10838 ft 187 kts 293°
2026-05-03 22:40 30.38443 -89.18410 11369 ft 188 kts 292°
2026-05-03 22:41 30.38888 -89.19777 11919 ft 188 kts 292°
2026-05-03 22:41 30.39334 -89.21147 12448 ft 187 kts 292°
2026-05-03 22:41 30.39788 -89.22535 12949 ft 188 kts 292°
2026-05-03 22:41 30.40234 -89.23907 13434 ft 189 kts 292°
2026-05-03 22:42 30.40688 -89.25306 13918 ft 190 kts 292°
2026-05-03 22:42 30.41149 -89.26722 14394 ft 191 kts 292°
2026-05-03 22:42 30.41605 -89.28121 14867 ft 192 kts 292°
2026-05-03 22:42 30.42063 -89.29531 15320 ft 193 kts 292°
2026-05-03 22:43 30.42523 -89.30956 15767 ft 194 kts 292°
2026-05-03 22:43 30.42987 -89.32378 16196 ft 195 kts 292°
2026-05-03 22:43 30.43458 -89.33829 16621 ft 197 kts 292°
2026-05-03 22:43 30.43925 -89.35266 17020 ft 199 kts 292°
2026-05-03 22:44 30.44384 -89.36683 17423 ft 200 kts 292°
2026-05-03 22:44 30.44866 -89.38166 17823 ft 201 kts 292°
2026-05-03 22:44 30.45349 -89.39654 18221 ft 202 kts 292°
2026-05-03 22:44 30.45828 -89.41138 18634 ft 202 kts 292°
2026-05-03 22:45 30.46294 -89.42573 19039 ft 201 kts 292°
2026-05-03 22:45 30.46780 -89.44077 19448 ft 201 kts 292°
2026-05-03 22:45 30.47262 -89.45560 19845 ft 200 kts 292°
2026-05-03 22:45 30.47734 -89.47025 20209 ft 201 kts 292°
2026-05-03 22:46 30.48209 -89.48491 20590 ft 201 kts 292°
2026-05-03 22:46 30.48686 -89.49969 20927 ft 202 kts 292°
2026-05-03 22:46 30.49163 -89.51449 21288 ft 202 kts 292°
2026-05-03 22:46 30.49645 -89.52938 21632 ft 203 kts 292°
2026-05-03 22:47 30.50121 -89.54419 21975 ft 203 kts 292°
2026-05-03 22:47 30.50603 -89.55907 22305 ft 204 kts 293°
2026-05-03 22:47 30.51080 -89.57393 22655 ft 203 kts 293°
2026-05-03 22:47 30.51567 -89.58892 22981 ft 203 kts 293°
2026-05-03 22:48 30.52052 -89.60402 23301 ft 204 kts 293°
2026-05-03 22:48 30.52539 -89.61918 23596 ft 205 kts 293°
2026-05-03 22:48 30.53032 -89.63442 23894 ft 206 kts 293°
2026-05-03 22:48 30.53516 -89.64947 24200 ft 206 kts 293°
2026-05-03 22:49 30.54000 -89.66450 24521 ft 206 kts 292°
2026-05-03 22:49 30.54490 -89.67974 24822 ft 206 kts 292°
2026-05-03 22:49 30.54982 -89.69499 25118 ft 206 kts 292°
2026-05-03 22:49 30.55475 -89.71040 25400 ft 207 kts 292°
2026-05-03 22:50 30.55947 -89.72461 25678 ft 206 kts 297°
2026-05-03 22:50 30.56809 -89.73523 25878 ft 210 kts 323°
2026-05-03 22:50 30.57987 -89.74299 26164 ft 209 kts 323°
2026-05-03 22:50 30.59196 -89.75180 26430 ft 210 kts 323°
2026-05-03 22:51 30.60398 -89.76038 26657 ft 212 kts 323°
2026-05-03 22:51 30.61600 -89.76892 26872 ft 214 kts 323°
2026-05-03 22:51 30.62747 -89.77706 27101 ft 214 kts 323°
2026-05-03 22:51 30.63981 -89.78576 27359 ft 214 kts 323°
2026-05-03 22:52 30.65215 -89.79448 27628 ft 213 kts 323°
2026-05-03 22:52 30.66417 -89.80296 27854 ft 214 kts 323°
2026-05-03 22:52 30.67642 -89.81165 28089 ft 214 kts 323°
2026-05-03 22:52 30.68889 -89.82042 28298 ft 216 kts 323°
2026-05-03 22:53 30.70121 -89.82915 28520 ft 216 kts 323°
2026-05-03 22:53 30.71362 -89.83788 28792 ft 214 kts 323°
2026-05-03 22:53 30.72590 -89.84652 29023 ft 214 kts 323°
2026-05-03 22:53 30.73798 -89.85506 29264 ft 213 kts 323°
2026-05-03 22:54 30.75020 -89.86372 29481 ft 213 kts 323°
2026-05-03 22:54 30.76225 -89.87223 29725 ft 211 kts 323°
2026-05-03 22:54 30.77435 -89.88077 29950 ft 210 kts 323°
2026-05-03 22:54 30.78607 -89.88909 30157 ft 209 kts 323°
2026-05-03 22:55 30.79790 -89.89745 30352 ft 209 kts 322°
2026-05-03 22:55 30.80996 -89.90600 30553 ft 209 kts 323°
2026-05-03 22:55 30.82196 -89.91451 30751 ft 208 kts 323°
2026-05-03 22:55 30.83411 -89.92307 30924 ft 209 kts 323°
2026-05-03 22:56 30.84622 -89.93164 31100 ft 209 kts 323°
2026-05-03 22:56 30.85829 -89.94021 31274 ft 209 kts 323°
2026-05-03 22:56 30.87047 -89.94886 31460 ft 208 kts 323°
2026-05-03 22:56 30.88247 -89.95735 31669 ft 207 kts 323°
2026-05-03 22:57 30.89420 -89.96569 31829 ft 207 kts 323°
2026-05-03 22:57 30.90630 -89.97427 31995 ft 206 kts 322°
2026-05-03 22:57 30.91802 -89.98258 32161 ft 206 kts 323°
2026-05-03 22:57 30.92999 -89.99108 32287 ft 207 kts 322°
2026-05-03 22:58 30.94177 -89.99941 32455 ft 206 kts 323°
2026-05-03 22:58 30.95378 -90.00798 32622 ft 205 kts 323°
2026-05-03 22:58 30.96562 -90.01635 32768 ft 205 kts 323°
2026-05-03 22:58 30.97738 -90.02475 32870 ft 207 kts 323°
2026-05-03 22:59 30.98919 -90.03312 33004 ft 207 kts 323°
2026-05-03 22:59 31.00118 -90.04160 33158 ft 206 kts 323°
2026-05-03 22:59 31.01291 -90.05000 33286 ft 206 kts 323°
2026-05-03 22:59 31.02481 -90.05848 33419 ft 206 kts 323°
2026-05-03 23:00 31.03682 -90.06702 33542 ft 206 kts 323°
2026-05-03 23:00 31.04868 -90.07545 33688 ft 205 kts 323°
2026-05-03 23:00 31.06054 -90.08388 33830 ft 204 kts 323°
2026-05-03 23:00 31.07230 -90.09224 33954 ft 203 kts 322°
2026-05-03 23:01 31.08391 -90.10049 34074 ft 203 kts 323°
2026-05-03 23:01 31.09570 -90.10900 34103 ft 207 kts 323°
2026-05-03 23:01 31.10770 -90.11753 34113 ft 210 kts 323°
2026-05-03 23:01 31.11985 -90.12617 34118 ft 213 kts 323°
2026-05-03 23:02 31.13207 -90.13496 34120 ft 217 kts 323°
2026-05-03 23:02 31.14402 -90.14346 34112 ft 220 kts 323°
2026-05-03 23:02 31.15591 -90.15196 34118 ft 224 kts 324°
2026-05-03 23:02 31.16816 -90.16070 34119 ft 227 kts 323°
2026-05-03 23:03 31.18118 -90.16999 34124 ft 231 kts 323°
2026-05-03 23:03 31.19431 -90.17934 34128 ft 234 kts 323°
2026-05-03 23:03 31.21905 -90.19705 34127 ft 240 kts 324°
2026-05-03 23:04 31.22624 -90.20219 34127 ft 242 kts 324°
2026-05-03 23:04 31.23943 -90.21161 34121 ft 244 kts 324°
2026-05-03 23:04 31.25351 -90.22170 34117 ft 247 kts 323°
2026-05-03 23:04 31.26803 -90.23206 34116 ft 249 kts 324°
2026-05-03 23:05 31.28256 -90.24252 34116 ft 250 kts 324°
2026-05-03 23:05 31.29706 -90.25281 34115 ft 252 kts 325°
2026-05-03 23:05 31.31358 -90.25849 34113 ft 269 kts 349°
2026-05-03 23:05 31.33211 -90.25820 34125 ft 271 kts 351°
2026-05-03 23:06 31.35035 -90.25852 34124 ft 271 kts 350°
2026-05-03 23:06 31.36890 -90.25875 34121 ft 273 kts 351°
2026-05-03 23:06 31.38748 -90.25895 34113 ft 274 kts 351°
2026-05-03 23:06 31.40579 -90.25909 34118 ft 274 kts 351°
2026-05-03 23:07 31.42457 -90.25927 34117 ft 275 kts 351°
2026-05-03 23:07 31.44321 -90.25944 34124 ft 276 kts 351°
2026-05-03 23:07 31.46186 -90.25959 34126 ft 276 kts 351°
2026-05-03 23:07 31.48059 -90.25976 34118 ft 277 kts 351°
2026-05-03 23:08 31.49914 -90.25992 34121 ft 278 kts 351°
2026-05-03 23:08 31.51822 -90.26009 34117 ft 278 kts 351°
2026-05-03 23:08 31.53697 -90.26024 34123 ft 278 kts 351°
2026-05-03 23:08 31.55592 -90.26045 34222 ft 276 kts 351°
2026-05-03 23:09 31.57436 -90.26058 34364 ft 273 kts 351°
2026-05-03 23:09 31.59293 -90.26068 34506 ft 270 kts 351°
2026-05-03 23:09 31.61101 -90.26085 34648 ft 267 kts 351°
2026-05-03 23:09 31.62867 -90.26103 34788 ft 264 kts 351°
2026-05-03 23:10 31.64667 -90.26115 34931 ft 262 kts 350°
2026-05-03 23:10 31.66456 -90.26131 35071 ft 259 kts 350°
2026-05-03 23:10 31.68227 -90.26150 35113 ft 261 kts 350°
2026-05-03 23:10 31.70015 -90.26168 35126 ft 264 kts 350°
2026-05-03 23:11 31.71814 -90.26187 35126 ft 267 kts 350°
2026-05-03 23:11 31.73675 -90.26203 35132 ft 270 kts 350°
2026-05-03 23:11 31.75507 -90.26223 35125 ft 273 kts 351°
2026-05-03 23:11 31.77379 -90.26238 35126 ft 275 kts 351°
2026-05-03 23:12 31.79246 -90.26254 35120 ft 278 kts 351°
2026-05-03 23:12 31.81166 -90.26268 35127 ft 279 kts 351°
2026-05-03 23:12 31.83085 -90.26283 35128 ft 279 kts 351°
2026-05-03 23:12 31.84983 -90.26300 35130 ft 279 kts 351°
2026-05-03 23:13 31.86916 -90.26319 35124 ft 280 kts 351°
2026-05-03 23:13 31.88808 -90.26336 35122 ft 280 kts 351°
2026-05-03 23:13 31.90725 -90.26350 35117 ft 280 kts 351°
2026-05-03 23:13 31.92643 -90.26367 35116 ft 280 kts 351°
2026-05-03 23:14 31.94560 -90.26382 35121 ft 280 kts 351°
2026-05-03 23:14 31.96358 -90.26400 35121 ft 280 kts 351°
2026-05-03 23:14 31.98269 -90.26416 35123 ft 280 kts 351°
2026-05-03 23:14 32.00190 -90.26432 35114 ft 280 kts 351°
2026-05-03 23:15 32.02132 -90.26451 35117 ft 280 kts 351°
2026-05-03 23:15 32.03875 -90.26465 35120 ft 280 kts 351°
2026-05-03 23:15 32.05773 -90.26480 35120 ft 280 kts 351°
2026-05-03 23:15 32.07673 -90.26499 35119 ft 280 kts 351°
2026-05-03 23:16 32.09585 -90.26518 35116 ft 280 kts 352°
2026-05-03 23:16 32.11493 -90.26533 35124 ft 280 kts 351°
2026-05-03 23:16 32.13376 -90.26548 35122 ft 280 kts 351°
2026-05-03 23:16 32.15188 -90.26566 35126 ft 280 kts 351°
2026-05-03 23:17 32.17056 -90.26583 35122 ft 281 kts 352°
2026-05-03 23:17 32.18812 -90.26598 35124 ft 281 kts 352°
2026-05-03 23:17 32.20678 -90.26615 35113 ft 281 kts 352°
2026-05-03 23:17 32.22272 -90.26629 35114 ft 281 kts 352°
2026-05-03 23:18 32.24217 -90.26643 35120 ft 281 kts 352°
2026-05-03 23:18 32.26106 -90.26660 35120 ft 281 kts 352°
2026-05-03 23:18 32.27839 -90.26678 35115 ft 281 kts 352°
2026-05-03 23:18 32.29685 -90.26693 35117 ft 281 kts 352°
2026-05-03 23:19 32.31523 -90.26706 35114 ft 281 kts 352°
2026-05-03 23:19 32.33229 -90.26725 35114 ft 281 kts 352°
2026-05-03 23:19 32.35182 -90.26740 35112 ft 281 kts 352°
2026-05-03 23:19 32.37103 -90.26758 35112 ft 281 kts 352°
2026-05-03 23:20 32.39009 -90.26775 35117 ft 281 kts 352°
2026-05-03 23:20 32.40945 -90.26794 35114 ft 281 kts 352°
2026-05-03 23:20 32.42849 -90.26808 35117 ft 281 kts 352°
2026-05-03 23:20 32.44772 -90.26827 35110 ft 282 kts 352°
2026-05-03 23:21 32.46698 -90.26844 35109 ft 281 kts 352°
2026-05-03 23:21 32.48605 -90.26859 35107 ft 281 kts 352°
2026-05-03 23:21 32.50525 -90.26875 35111 ft 280 kts 352°
2026-05-03 23:21 32.52438 -90.26893 35115 ft 280 kts 352°
2026-05-03 23:22 32.56257 -90.26928 35109 ft 280 kts 352°
2026-05-03 23:22 32.58169 -90.26945 35103 ft 280 kts 352°
2026-05-03 23:22 32.60094 -90.26962 35098 ft 280 kts 352°
2026-05-03 23:23 32.62015 -90.26976 35094 ft 279 kts 352°
2026-05-03 23:23 32.63924 -90.26994 35087 ft 279 kts 352°
2026-05-03 23:23 32.65837 -90.27011 35092 ft 279 kts 352°
2026-05-03 23:23 32.67739 -90.27029 35089 ft 279 kts 352°
2026-05-03 23:24 32.69618 -90.27046 35088 ft 279 kts 352°
2026-05-03 23:24 32.71504 -90.27062 35084 ft 278 kts 353°
2026-05-03 23:24 32.73388 -90.27079 35087 ft 278 kts 352°
2026-05-03 23:24 32.75279 -90.27096 35085 ft 278 kts 352°
2026-05-03 23:25 32.77186 -90.27111 35086 ft 278 kts 352°
2026-05-03 23:25 32.79066 -90.27130 35088 ft 278 kts 352°
2026-05-03 23:25 32.80930 -90.27149 35084 ft 278 kts 352°
2026-05-03 23:25 32.82836 -90.27163 35081 ft 278 kts 352°
2026-05-03 23:26 32.84755 -90.27180 35082 ft 277 kts 352°
2026-05-03 23:26 32.86653 -90.27198 35084 ft 277 kts 352°
2026-05-03 23:26 32.88567 -90.27216 35082 ft 277 kts 352°
2026-05-03 23:26 32.90465 -90.27232 35085 ft 277 kts 352°
2026-05-03 23:27 32.92218 -90.27249 35083 ft 277 kts 353°
2026-05-03 23:27 32.94234 -90.27268 35078 ft 277 kts 353°
2026-05-03 23:27 32.96148 -90.27285 35075 ft 277 kts 352°
2026-05-03 23:27 32.98016 -90.27298 35080 ft 277 kts 353°
2026-05-03 23:28 32.99911 -90.27318 35076 ft 277 kts 353°
2026-05-03 23:28 33.01801 -90.27333 35079 ft 277 kts 353°
2026-05-03 23:28 33.03697 -90.27348 35075 ft 277 kts 353°
2026-05-03 23:28 33.05593 -90.27364 35073 ft 277 kts 353°
2026-05-03 23:29 33.07491 -90.27384 35079 ft 277 kts 353°
2026-05-03 23:29 33.09360 -90.27400 35076 ft 277 kts 353°
2026-05-03 23:29 33.11186 -90.27417 35081 ft 277 kts 352°
2026-05-03 23:29 33.13069 -90.27434 35083 ft 277 kts 352°
2026-05-03 23:30 33.14958 -90.27453 35076 ft 277 kts 353°
2026-05-03 23:30 33.16765 -90.27467 35081 ft 277 kts 352°
2026-05-03 23:30 33.18551 -90.27484 35081 ft 278 kts 353°
2026-05-03 23:30 33.20333 -90.27501 35081 ft 278 kts 353°
2026-05-03 23:31 33.22265 -90.27518 35080 ft 278 kts 353°
2026-05-03 23:31 33.24168 -90.27532 35085 ft 278 kts 352°
2026-05-03 23:31 33.26049 -90.27552 35089 ft 278 kts 352°
2026-05-03 23:31 33.27864 -90.27568 35090 ft 278 kts 353°
2026-05-03 23:32 33.29710 -90.27584 35089 ft 278 kts 353°
2026-05-03 23:32 33.31595 -90.27602 35087 ft 278 kts 353°
2026-05-03 23:32 33.33491 -90.27619 35084 ft 278 kts 352°
2026-05-03 23:32 33.35412 -90.27635 35089 ft 278 kts 353°
2026-05-03 23:33 33.37305 -90.27652 35089 ft 279 kts 352°
2026-05-03 23:33 33.39192 -90.27670 35091 ft 279 kts 353°
2026-05-03 23:33 33.41111 -90.27688 35087 ft 279 kts 353°
2026-05-03 23:33 33.43003 -90.27704 35090 ft 279 kts 352°
2026-05-03 23:34 33.44896 -90.27720 35086 ft 279 kts 352°
2026-05-03 23:34 33.46805 -90.27667 35081 ft 284 kts 359°
2026-05-03 23:34 33.48713 -90.27304 35083 ft 286 kts
2026-05-03 23:34 33.50639 -90.26943 35090 ft 285 kts
2026-05-03 23:35 33.52577 -90.26584 35088 ft 285 kts
2026-05-03 23:35 33.54446 -90.26235 35088 ft 285 kts
2026-05-03 23:35 33.56322 -90.25888 35091 ft 285 kts
2026-05-03 23:35 33.58306 -90.25514 35085 ft 286 kts
2026-05-03 23:36 33.60242 -90.25153 35083 ft 286 kts
2026-05-03 23:36 33.62114 -90.24806 35083 ft 286 kts
2026-05-03 23:36 33.64018 -90.24450 35082 ft 286 kts
2026-05-03 23:36 33.65948 -90.24087 35085 ft 286 kts
2026-05-03 23:37 33.67858 -90.23730 35079 ft 286 kts
2026-05-03 23:37 33.69789 -90.23370 35080 ft 286 kts
2026-05-03 23:37 33.71739 -90.23005 35081 ft 286 kts
2026-05-03 23:37 33.73676 -90.22641 35074 ft 286 kts
2026-05-03 23:38 33.75584 -90.22286 35080 ft 286 kts
2026-05-03 23:38 33.77509 -90.21921 35078 ft 286 kts
2026-05-03 23:38 33.79458 -90.21555 35072 ft 286 kts
2026-05-03 23:38 33.81376 -90.21197 35070 ft 286 kts
2026-05-03 23:39 33.83308 -90.20834 35071 ft 286 kts
2026-05-03 23:39 33.85238 -90.20473 35068 ft 287 kts
2026-05-03 23:39 33.87170 -90.20109 35066 ft 286 kts
2026-05-03 23:39 33.89106 -90.19748 35064 ft 287 kts
2026-05-03 23:40 33.91027 -90.19383 35065 ft 286 kts
2026-05-03 23:40 33.92924 -90.19027 35069 ft 286 kts
2026-05-03 23:40 33.94850 -90.18664 35066 ft 286 kts
2026-05-03 23:40 33.96793 -90.18298 35068 ft 286 kts
2026-05-03 23:41 33.98687 -90.17941 35064 ft 286 kts
2026-05-03 23:41 34.00606 -90.17582 35066 ft 286 kts
2026-05-03 23:41 34.02533 -90.17217 35061 ft 286 kts
2026-05-03 23:41 34.04437 -90.16857 35068 ft 286 kts
2026-05-03 23:42 34.06370 -90.16492 35066 ft 286 kts
2026-05-03 23:42 34.08303 -90.16129 35070 ft 286 kts
2026-05-03 23:42 34.10215 -90.15766 35068 ft 286 kts
2026-05-03 23:42 34.12177 -90.15396 35068 ft 287 kts
2026-05-03 23:43 34.14105 -90.15032 35070 ft 287 kts
2026-05-03 23:43 34.15987 -90.14676 35078 ft 287 kts
2026-05-03 23:43 34.17831 -90.14325 35079 ft 287 kts
2026-05-03 23:43 34.19661 -90.13981 35073 ft 288 kts
2026-05-03 23:44 34.21483 -90.13634 35066 ft 288 kts
2026-05-03 23:44 34.23329 -90.13285 35067 ft 288 kts
2026-05-03 23:44 34.25267 -90.12919 35065 ft 289 kts
2026-05-03 23:44 34.27196 -90.12550 35062 ft 289 kts
2026-05-03 23:45 34.29078 -90.12193 35062 ft 289 kts
2026-05-03 23:45 34.30939 -90.11844 35054 ft 290 kts
2026-05-03 23:45 34.32782 -90.11494 35054 ft 290 kts
2026-05-03 23:45 34.34699 -90.11127 35059 ft 290 kts
2026-05-03 23:46 34.36637 -90.10758 35052 ft 290 kts
2026-05-03 23:46 34.38609 -90.10383 35058 ft 290 kts
2026-05-03 23:46 34.40554 -90.10013 35060 ft 290 kts
2026-05-03 23:46 34.42520 -90.09637 35051 ft 290 kts
2026-05-03 23:47 34.44477 -90.09266 35054 ft 290 kts
2026-05-03 23:47 34.46425 -90.08895 35053 ft 290 kts
2026-05-03 23:47 34.48371 -90.08523 35051 ft 291 kts
2026-05-03 23:47 34.50322 -90.08150 35052 ft 291 kts
2026-05-03 23:48 34.52262 -90.07779 35047 ft 291 kts
2026-05-03 23:48 34.54226 -90.07406 35049 ft 291 kts
2026-05-03 23:48 34.56173 -90.07034 35044 ft 291 kts
2026-05-03 23:48 34.58122 -90.06660 35047 ft 291 kts
2026-05-03 23:49 34.60050 -90.06293 35044 ft 291 kts
2026-05-03 23:49 34.61943 -90.05932 35046 ft 291 kts
2026-05-03 23:49 34.63939 -90.05549 35046 ft 290 kts
2026-05-03 23:49 34.65841 -90.05183 35045 ft 290 kts
2026-05-03 23:50 34.67790 -90.04811 35043 ft 290 kts
2026-05-03 23:50 34.69091 -90.04562 35045 ft 290 kts
2026-05-03 23:50 34.71673 -90.04067 35045 ft 290 kts
2026-05-03 23:50 34.73596 -90.03698 35048 ft 291 kts
2026-05-03 23:51 34.75491 -90.03335 35048 ft 291 kts
2026-05-03 23:51 34.77407 -90.02967 35051 ft 291 kts
2026-05-03 23:51 34.79383 -90.02587 35048 ft 291 kts
2026-05-03 23:51 34.81295 -90.02219 35051 ft 291 kts
2026-05-03 23:52 34.83251 -90.01844 35053 ft 291 kts
2026-05-03 23:52 34.85210 -90.01464 35054 ft 291 kts
2026-05-03 23:52 34.87017 -90.01118 35058 ft 291 kts
2026-05-03 23:52 34.89044 -90.00730 35054 ft 291 kts
2026-05-03 23:53 34.90987 -90.00352 35053 ft 291 kts
2026-05-03 23:53 34.92939 -89.99979 35056 ft 291 kts
2026-05-03 23:53 34.94869 -89.99605 35055 ft 291 kts
2026-05-03 23:53 34.96611 -89.99266 35054 ft 291 kts
2026-05-03 23:54 34.98565 -89.98889 35055 ft 291 kts
2026-05-03 23:54 35.00504 -89.98515 35056 ft 291 kts
2026-05-03 23:54 35.02449 -89.98286 35048 ft 283 kts 351°
2026-05-03 23:54 35.04362 -89.98023 35049 ft 296 kts
2026-05-03 23:55 35.06284 -89.97357 35051 ft 294 kts
2026-05-03 23:55 35.08232 -89.96834 35051 ft 293 kts
2026-05-03 23:55 35.10136 -89.96357 35049 ft 292 kts
2026-05-03 23:55 35.12086 -89.95886 35058 ft 292 kts
2026-05-03 23:56 35.14022 -89.95431 35056 ft 293 kts
2026-05-03 23:56 35.15872 -89.94997 35053 ft 293 kts
2026-05-03 23:56 35.17732 -89.94564 35053 ft 293 kts
2026-05-03 23:56 35.19635 -89.94119 35052 ft 293 kts
2026-05-03 23:57 35.21541 -89.93673 35058 ft 293 kts
2026-05-03 23:57 35.23512 -89.93216 35059 ft 293 kts
2026-05-03 23:57 35.25423 -89.92769 35055 ft 294 kts
2026-05-03 23:57 35.27285 -89.92335 35047 ft 294 kts
2026-05-03 23:58 35.29169 -89.91897 35050 ft 294 kts
2026-05-03 23:58 35.30909 -89.91491 35053 ft 293 kts
2026-05-03 23:58 35.32863 -89.91036 35051 ft 294 kts
2026-05-03 23:58 35.34803 -89.90584 35050 ft 293 kts
2026-05-03 23:59 35.36738 -89.90133 35051 ft 294 kts
2026-05-03 23:59 35.38667 -89.89681 35051 ft 293 kts
2026-05-03 23:59 35.40622 -89.89225 35045 ft 293 kts
2026-05-03 23:59 35.42590 -89.88767 35043 ft 293 kts
2026-05-04 00:00 35.44529 -89.88311 35047 ft 293 kts
2026-05-04 00:00 35.46512 -89.87845 35045 ft 293 kts
2026-05-04 00:00 35.48457 -89.87389 35044 ft 293 kts
2026-05-04 00:00 35.50407 -89.86933 35041 ft 293 kts
2026-05-04 00:01 35.52351 -89.86477 35035 ft 293 kts
2026-05-04 00:01 35.54326 -89.86012 35039 ft 293 kts
2026-05-04 00:01 35.56265 -89.85559 35036 ft 293 kts
2026-05-04 00:01 35.58207 -89.85103 35035 ft 292 kts
2026-05-04 00:02 35.60155 -89.84646 35032 ft 292 kts
2026-05-04 00:02 35.62113 -89.84184 35029 ft 292 kts
2026-05-04 00:02 35.64044 -89.83733 35030 ft 292 kts
2026-05-04 00:02 35.65982 -89.83278 35031 ft 292 kts
2026-05-04 00:03 35.67932 -89.82818 35028 ft 292 kts
2026-05-04 00:03 35.69870 -89.82359 35029 ft 291 kts
2026-05-04 00:03 35.71790 -89.81908 35032 ft 291 kts
2026-05-04 00:03 35.73733 -89.81450 35031 ft 291 kts
2026-05-04 00:04 35.75657 -89.80996 35031 ft 291 kts
2026-05-04 00:04 35.77613 -89.80536 35030 ft 291 kts
2026-05-04 00:04 35.79529 -89.80083 35030 ft 291 kts
2026-05-04 00:04 35.81475 -89.79625 35031 ft 291 kts
2026-05-04 00:05 35.83406 -89.79168 35029 ft 291 kts
2026-05-04 00:05 35.85352 -89.78706 35030 ft 291 kts
2026-05-04 00:05 35.87280 -89.78253 35034 ft 291 kts
2026-05-04 00:05 35.89202 -89.77798 35033 ft 291 kts
2026-05-04 00:06 35.91108 -89.77345 35029 ft 291 kts
2026-05-04 00:06 35.93042 -89.76887 35034 ft 290 kts
2026-05-04 00:06 35.94972 -89.76429 35025 ft 290 kts
2026-05-04 00:06 35.96917 -89.75970 35027 ft 290 kts
2026-05-04 00:07 35.98866 -89.75508 35027 ft 290 kts
2026-05-04 00:07 36.00804 -89.75049 35024 ft 290 kts
2026-05-04 00:07 36.02744 -89.74586 35020 ft 290 kts
2026-05-04 00:07 36.04669 -89.74130 35019 ft 289 kts
2026-05-04 00:08 36.06598 -89.73671 35015 ft 289 kts
2026-05-04 00:08 36.08530 -89.73211 35013 ft 289 kts
2026-05-04 00:08 36.10437 -89.72756 35010 ft 289 kts
2026-05-04 00:08 36.12357 -89.72301 35011 ft 289 kts
2026-05-04 00:09 36.14297 -89.71841 35010 ft 289 kts
2026-05-04 00:09 36.16165 -89.71393 35009 ft 289 kts
2026-05-04 00:09 36.18024 -89.70951 35009 ft 290 kts
2026-05-04 00:09 36.19793 -89.70529 35007 ft 290 kts
2026-05-04 00:10 36.21669 -89.70082 35005 ft 290 kts
2026-05-04 00:10 36.23636 -89.69612 35003 ft 290 kts
2026-05-04 00:10 36.25548 -89.69154 35004 ft 290 kts
2026-05-04 00:10 36.27410 -89.68711 35007 ft 290 kts
2026-05-04 00:11 36.29102 -89.68306 35007 ft 290 kts
2026-05-04 00:11 36.30713 -89.67919 34998 ft 290 kts 360°
2026-05-04 00:11 36.32800 -89.67419 35001 ft 290 kts
2026-05-04 00:11 36.34770 -89.66948 34999 ft 290 kts 360°
2026-05-04 00:12 36.36669 -89.66495 35002 ft 290 kts
2026-05-04 00:12 36.38615 -89.66027 34998 ft 290 kts
2026-05-04 00:12 36.40549 -89.65564 34995 ft 290 kts 360°
2026-05-04 00:12 36.42490 -89.65096 34992 ft 290 kts 360°
2026-05-04 00:13 36.44419 -89.64634 34992 ft 290 kts 360°
2026-05-04 00:13 36.46352 -89.64169 34991 ft 290 kts 360°
2026-05-04 00:13 36.48271 -89.63709 34988 ft 290 kts 360°
2026-05-04 00:13 36.50200 -89.63245 34989 ft 290 kts 360°
2026-05-04 00:14 36.52131 -89.62783 34982 ft 290 kts 360°
2026-05-04 00:14 36.54048 -89.62319 34985 ft 290 kts 359°
2026-05-04 00:14 36.55978 -89.61854 34988 ft 290 kts 360°
2026-05-04 00:14 36.57911 -89.61388 34984 ft 290 kts 359°
2026-05-04 00:15 36.59746 -89.60946 34985 ft 290 kts 360°
2026-05-04 00:15 36.61682 -89.60480 34981 ft 290 kts 359°
2026-05-04 00:15 36.63604 -89.60017 34973 ft 290 kts 359°
2026-05-04 00:15 36.65511 -89.59557 34978 ft 289 kts 359°
2026-05-04 00:16 36.67418 -89.59095 34978 ft 289 kts 359°
2026-05-04 00:16 36.69303 -89.58642 34975 ft 289 kts 359°
2026-05-04 00:16 36.71216 -89.58178 34975 ft 289 kts 359°
2026-05-04 00:16 36.73128 -89.57717 34972 ft 289 kts 359°
2026-05-04 00:17 36.75028 -89.57258 34974 ft 288 kts 359°
2026-05-04 00:17 36.76920 -89.56800 34973 ft 288 kts 359°
2026-05-04 00:17 36.78809 -89.56341 34971 ft 288 kts 359°
2026-05-04 00:17 36.80723 -89.55878 34966 ft 288 kts 359°
2026-05-04 00:18 36.82625 -89.55419 34969 ft 288 kts 359°
2026-05-04 00:18 36.84436 -89.54980 34976 ft 287 kts 359°
2026-05-04 00:18 36.86347 -89.54516 34979 ft 287 kts 359°
2026-05-04 00:18 36.88178 -89.54071 34975 ft 287 kts 359°
2026-05-04 00:19 36.90063 -89.53614 34979 ft 287 kts 359°
2026-05-04 00:19 36.91916 -89.53165 34979 ft 287 kts 359°
2026-05-04 00:19 36.93775 -89.52709 34978 ft 286 kts 359°
2026-05-04 00:19 36.95586 -89.52268 34974 ft 287 kts 359°
2026-05-04 00:20 36.97451 -89.51815 34973 ft 287 kts 359°
2026-05-04 00:20 36.99297 -89.51366 34974 ft 287 kts 359°
2026-05-04 00:20 37.01191 -89.50906 34974 ft 287 kts 359°
2026-05-04 00:20 37.02904 -89.50487 34967 ft 287 kts 359°
2026-05-04 00:21 37.04810 -89.50023 34967 ft 287 kts 359°
2026-05-04 00:21 37.06688 -89.49566 34968 ft 287 kts 359°
2026-05-04 00:21 37.08578 -89.49105 34971 ft 286 kts 359°
2026-05-04 00:21 37.10395 -89.48659 34967 ft 286 kts 359°
2026-05-04 00:22 37.12347 -89.48180 34969 ft 287 kts 359°
2026-05-04 00:22 37.14241 -89.47716 34972 ft 287 kts 359°
2026-05-04 00:22 37.16130 -89.47256 34975 ft 288 kts 359°
2026-05-04 00:22 37.17867 -89.46826 34969 ft 288 kts 359°
2026-05-04 00:23 37.19596 -89.46406 34969 ft 289 kts 359°
2026-05-04 00:23 37.21267 -89.45995 34971 ft 289 kts 359°
2026-05-04 00:23 37.23170 -89.45532 34972 ft 289 kts 359°
2026-05-04 00:23 37.25072 -89.45063 34973 ft 289 kts 359°
2026-05-04 00:24 37.26938 -89.44606 34963 ft 290 kts 359°
2026-05-04 00:24 37.28687 -89.44176 34968 ft 290 kts 359°
2026-05-04 00:24 37.30421 -89.43747 34961 ft 290 kts 359°
2026-05-04 00:24 37.31962 -89.43368 34969 ft 289 kts 359°
2026-05-04 00:25 37.33747 -89.42931 34960 ft 290 kts 359°
2026-05-04 00:25 37.35656 -89.42463 34957 ft 290 kts 359°
2026-05-04 00:25 37.37542 -89.41998 34952 ft 290 kts 359°
2026-05-04 00:25 37.39443 -89.41529 34953 ft 289 kts 358°
2026-05-04 00:26 37.41348 -89.41056 34953 ft 289 kts 358°
2026-05-04 00:26 37.43248 -89.40592 34957 ft 289 kts 359°
2026-05-04 00:26 37.45149 -89.40124 34961 ft 289 kts 359°
2026-05-04 00:26 37.47024 -89.39661 34957 ft 289 kts 359°
2026-05-04 00:27 37.48917 -89.39191 34954 ft 289 kts 359°
2026-05-04 00:27 37.50759 -89.38739 34950 ft 289 kts 358°
2026-05-04 00:27 37.52679 -89.38262 34955 ft 289 kts 359°
2026-05-04 00:27 37.54560 -89.37797 34957 ft 289 kts 359°
2026-05-04 00:28 37.56458 -89.37327 34955 ft 289 kts 359°
2026-05-04 00:28 37.58335 -89.36863 34953 ft 289 kts 358°
2026-05-04 00:28 37.60211 -89.36396 34957 ft 289 kts 359°
2026-05-04 00:28 37.62057 -89.35943 34959 ft 289 kts 359°
2026-05-04 00:29 37.63955 -89.35471 34955 ft 289 kts 359°
2026-05-04 00:29 37.65803 -89.35010 34956 ft 289 kts 359°
2026-05-04 00:29 37.67691 -89.34543 34943 ft 288 kts 359°
2026-05-04 00:29 37.69566 -89.34076 34946 ft 288 kts 359°
2026-05-04 00:30 37.71455 -89.33605 34940 ft 287 kts 359°
2026-05-04 00:30 37.73176 -89.33179 34939 ft 287 kts 359°
2026-05-04 00:30 37.74883 -89.32755 34940 ft 286 kts 359°
2026-05-04 00:30 37.76587 -89.32332 34943 ft 286 kts 359°
2026-05-04 00:31 37.78347 -89.31893 34941 ft 285 kts 359°
2026-05-04 00:31 37.80214 -89.31426 34939 ft 285 kts 359°
2026-05-04 00:31 37.82041 -89.30973 34938 ft 285 kts 359°
2026-05-04 00:31 37.83867 -89.30519 34937 ft 285 kts 359°
2026-05-04 00:32 37.85584 -89.30090 34930 ft 285 kts 359°
2026-05-04 00:32 37.87363 -89.29644 34934 ft 284 kts 359°
2026-05-04 00:32 37.89160 -89.29193 34941 ft 284 kts 359°
2026-05-04 00:32 37.90988 -89.28741 34937 ft 284 kts 359°
2026-05-04 00:33 37.92877 -89.28265 34936 ft 284 kts 358°
2026-05-04 00:33 37.96594 -89.27341 34931 ft 284 kts 359°
2026-05-04 00:33 37.98452 -89.26873 34927 ft 284 kts 358°
2026-05-04 00:34 38.00304 -89.26407 34929 ft 284 kts 358°
2026-05-04 00:34 38.02158 -89.25942 34920 ft 283 kts 358°
2026-05-04 00:34 38.04023 -89.25475 34913 ft 283 kts 358°
2026-05-04 00:34 38.05840 -89.25023 34916 ft 283 kts 358°
2026-05-04 00:35 38.07672 -89.24561 34918 ft 283 kts 358°
2026-05-04 00:35 38.09546 -89.24089 34921 ft 282 kts 358°
2026-05-04 00:35 38.11343 -89.23640 34932 ft 282 kts 358°
2026-05-04 00:35 38.13193 -89.23176 34932 ft 283 kts 358°
2026-05-04 00:36 38.15064 -89.22704 34928 ft 283 kts 358°
2026-05-04 00:36 38.16859 -89.22254 34840 ft 287 kts 358°
2026-05-04 00:36 38.18589 -89.21821 34506 ft 287 kts 359°
2026-05-04 00:36 38.20258 -89.21397 34198 ft 282 kts 358°
2026-05-04 00:37 38.21862 -89.20986 33909 ft 278 kts 358°
2026-05-04 00:37 38.23663 -89.20533 33595 ft 273 kts 358°
2026-05-04 00:37 38.25460 -89.20078 33293 ft 269 kts 358°
2026-05-04 00:37 38.27208 -89.19637 33006 ft 264 kts 358°
2026-05-04 00:38 38.28769 -89.19245 32742 ft 261 kts 358°
2026-05-04 00:38 38.30320 -89.18852 32488 ft 258 kts 358°
2026-05-04 00:38 38.31697 -89.18506 32265 ft 255 kts 358°
2026-05-04 00:38 38.33352 -89.18087 32001 ft 252 kts 358°
2026-05-04 00:39 38.35000 -89.17671 31733 ft 250 kts 358°
2026-05-04 00:39 38.36631 -89.17262 31466 ft 248 kts 358°
2026-05-04 00:39 38.38249 -89.16846 31209 ft 246 kts 358°
2026-05-04 00:39 38.39876 -89.16440 30949 ft 243 kts 358°
2026-05-04 00:40 38.41454 -89.16039 30701 ft 242 kts 359°
2026-05-04 00:40 38.43017 -89.15400 30451 ft 252 kts
2026-05-04 00:40 38.44554 -89.14549 30199 ft 251 kts
2026-05-04 00:40 38.46075 -89.13734 29952 ft 250 kts
2026-05-04 00:41 38.47608 -89.12915 29690 ft 250 kts
2026-05-04 00:41 38.49147 -89.12092 29432 ft 250 kts
2026-05-04 00:41 38.50699 -89.11260 29168 ft 250 kts
2026-05-04 00:41 38.52168 -89.10478 28912 ft 249 kts
2026-05-04 00:42 38.53675 -89.09671 28655 ft 249 kts
2026-05-04 00:42 38.55218 -89.08838 28387 ft 249 kts
2026-05-04 00:42 38.56753 -89.08019 28124 ft 249 kts
2026-05-04 00:42 38.58301 -89.07193 27860 ft 249 kts
2026-05-04 00:43 38.59815 -89.06380 27598 ft 249 kts
2026-05-04 00:43 38.61364 -89.05548 27334 ft 249 kts 10°
2026-05-04 00:43 38.62911 -89.04720 27072 ft 249 kts
2026-05-04 00:43 38.64462 -89.03882 26800 ft 249 kts
2026-05-04 00:44 38.65998 -89.03062 26539 ft 249 kts
2026-05-04 00:44 38.67543 -89.02228 26274 ft 249 kts 10°
2026-05-04 00:44 38.69091 -89.01398 26004 ft 249 kts 10°
2026-05-04 00:44 38.70661 -89.00550 25734 ft 249 kts 10°
2026-05-04 00:45 38.72220 -88.99713 25467 ft 249 kts 10°
2026-05-04 00:45 38.73780 -88.98872 25199 ft 248 kts 10°
2026-05-04 00:45 38.75321 -88.98045 24929 ft 248 kts 10°
2026-05-04 00:45 38.76878 -88.97205 24656 ft 249 kts 10°
2026-05-04 00:46 38.78442 -88.96361 24385 ft 249 kts 10°
2026-05-04 00:46 38.80017 -88.95513 24109 ft 249 kts 11°
2026-05-04 00:46 38.81566 -88.94677 23848 ft 248 kts 10°
2026-05-04 00:46 38.83128 -88.93833 23576 ft 248 kts 11°
2026-05-04 00:47 38.84671 -88.93000 23307 ft 248 kts 11°
2026-05-04 00:47 38.86231 -88.92152 23035 ft 248 kts 10°
2026-05-04 00:47 38.87784 -88.91314 22768 ft 247 kts 11°
2026-05-04 00:47 38.89331 -88.90474 22499 ft 247 kts 10°
2026-05-04 00:48 38.90872 -88.89642 22235 ft 246 kts 10°
2026-05-04 00:48 38.92313 -88.88863 21985 ft 245 kts 10°
2026-05-04 00:48 38.93843 -88.88032 21719 ft 244 kts 10°
2026-05-04 00:48 38.95381 -88.87197 21455 ft 244 kts 10°
2026-05-04 00:49 38.96848 -88.86401 21201 ft 242 kts
2026-05-04 00:49 38.98376 -88.85569 20934 ft 242 kts
2026-05-04 00:49 38.99896 -88.84745 20671 ft 241 kts
2026-05-04 00:49 39.01392 -88.83935 20418 ft 240 kts
2026-05-04 00:50 39.02892 -88.83119 20157 ft 239 kts
2026-05-04 00:50 39.04386 -88.82305 19901 ft 238 kts
2026-05-04 00:50 39.05862 -88.81504 19643 ft 237 kts
2026-05-04 00:50 39.07357 -88.80694 19382 ft 236 kts
2026-05-04 00:51 39.08861 -88.79876 19077 ft 236 kts
2026-05-04 00:51 39.10316 -88.79078 18914 ft 231 kts
2026-05-04 00:51 39.11753 -88.78297 18699 ft 230 kts
2026-05-04 00:51 39.13217 -88.77499 18467 ft 229 kts
2026-05-04 00:52 39.14654 -88.76716 18236 ft 229 kts
2026-05-04 00:52 39.15968 -88.76001 18021 ft 229 kts
2026-05-04 00:52 39.17266 -88.75296 17801 ft 229 kts
2026-05-04 00:52 39.18570 -88.74583 17582 ft 228 kts
2026-05-04 00:53 39.19921 -88.73843 17354 ft 228 kts
2026-05-04 00:53 39.21360 -88.73060 17109 ft 228 kts
2026-05-04 00:53 39.22787 -88.72282 16866 ft 228 kts
2026-05-04 00:53 39.24159 -88.71532 16632 ft 228 kts
2026-05-04 00:54 39.25427 -88.70838 16411 ft 228 kts
2026-05-04 00:54 39.26721 -88.70130 16187 ft 227 kts
2026-05-04 00:54 39.28076 -88.69389 15949 ft 227 kts
2026-05-04 00:54 39.29519 -88.68598 15709 ft 227 kts
2026-05-04 00:55 39.30935 -88.67816 15459 ft 227 kts
2026-05-04 00:55 39.32371 -88.67032 15211 ft 226 kts
2026-05-04 00:55 39.33798 -88.66250 14966 ft 226 kts
2026-05-04 00:55 39.35219 -88.65471 14722 ft 225 kts
2026-05-04 00:56 39.36642 -88.64692 14476 ft 225 kts
2026-05-04 00:56 39.37724 -88.64096 14293 ft 225 kts